Location: Mexico
(19.4000°N, 99.1500°W)
Time: 09:42:39
(UTC-06:00)

ISS - Pass Details

Date: 21 January 2018
Orbit: 402 x 407 km, 51.6° (Epoch: 23 January)

Event Time Altitude Azimuth Distance (km) Brightness Sun altitude
Exits shadow 05:50:14 37° 201° (SSW) 643 -2.9 -19.5°
Drops below altitude 10° 05:52:44 10° 161° (SSE) 1,452 -0.6 -18.9°
Sets 05:54:52 0° 154° (SSE) 2,310 0.6 -18.4°
